Tracking 18624 objects as of 1-May-2017
HD Live streaming from Space Station
objects crossing your sky now

COSMOS 1478

Track COSMOS 1478 now!
10-day predictions
COSMOS 1478 is classified as:


NORAD ID: 14176
Int'l Code: 1983-069F
Perigee: 1,470.1 km
Apogee: 1,488.1 km
Inclination: 74.0 °
Period: 115.4 minutes
Semi major axis: 7850 km
RCS: 0.7085 m2 (medium)
Launch date: July 6, 1983
Source: Commonwealth of Independent States (former USSR) (CIS)
Launch site: PLESETSK MISSILE AND SPACE COMPLEX (PKMTR)
Your satellite tracking list
Your tracking list is empty





NASA's NSSDC Master Catalog

Two Line Element Set (TLE):
1 14176U 83069F   17119.85525337 -.00000020 +00000-0 -28390-4 0  9992
2 14176 074.0226 138.5268 0011451 125.3699 299.7158 12.48215640540959
Source of the keplerian elements: AFSPC